DW2778 Weather Reports


time (UTC)temp
C
wind
direction
speed
KPH
gust
KPH
rain 1hr
cm
rain 24hr
cm
rain mn
cm
humidity
%
barometer
mb
20260507000053 21 221 6.4 16.1 0.00 0.00 0.00 74 1009.8
20260506234558 21 234 8.0 14.5 0.00 0.00 0.00 73 1009.9
20260506233055 22 225 8.0 17.7 0.00 0.00 0.00 72 1009.9
20260506231555 22 229 9.7 24.1 0.00 0.00 0.00 71 1009.8
20260506224559 22 198 11.3 27.4 0.00 0.00 0.00 71 1010.0
20260506223050 22 222 12.9 37.0 0.00 0.00 0.00 70 1009.8
20260506221551 22 255 17.7 37.0 0.00 0.00 0.00 70 1009.8
20260506220054 22 208 16.1 35.4 0.00 0.00 0.00 70 1009.6
20260506214550 22 229 22.5 41.8 0.00 0.00 0.00 70 1009.6
20260506213101 22 223 24.1 43.5 0.00 0.00 0.00 71 1009.6
20260506211550 22 212 20.9 41.8 0.00 0.00 0.00 71 1009.6
20260506210054 22 212 19.3 38.6 0.00 0.00 0.00 71 1009.3
20260506204551 22 208 17.7 48.3 0.00 0.00 0.00 71 1009.3
20260506203051 22 209 20.9 43.5 0.00 0.00 0.00 70 1009.1
20260506201555 22 189 20.9 40.2 0.00 0.00 0.00 69 1009.2
20260506200051 23 221 25.7 48.3 0.00 0.00 0.00 69 1009.6
20260506194554 23 204 20.9 41.8 0.00 0.00 0.00 68 1009.7
20260506193051 23 239 19.3 41.8 0.00 0.00 0.00 68 1009.7
20260506191551 23 213 22.5 48.3 0.00 0.00 0.00 67 1010.1
20260506190054 22 198 16.1 48.3 0.00 0.00 0.00 69 1010.3
20260506184555 22 131 22.5 46.7 0.00 0.00 0.00 71 1010.3
20260506183054 21 211 20.9 45.1 0.00 0.00 0.00 73 1010.6
20260506181558 21 219 22.5 46.7 0.00 0.00 0.00 73 1011.0
20260506180053 21 215 17.7 41.8 0.00 0.00 0.00 74 1011.2
20260506174553 21 196 29.0 49.9 0.00 0.00 0.00 72 1011.0
20260506173130 22 187 24.1 46.7 0.00 0.00 0.00 71 1011.1
20260506171622 21 202 17.7 43.5 0.00 0.00 0.00 73 1011.3
20260506170103 21 167 12.9 33.8 0.00 0.00 0.00 72 1011.5
20260506164609 21 180 16.1 62.8 0.00 0.00 0.00 69 1012.0
20260506163105 23 217 25.7 48.3 0.00 0.00 0.00 63 1012.3
20260506161639 23 228 17.7 45.1 0.00 0.00 0.00 60 1012.4
20260506160108 24 227 19.3 43.5 0.00 0.00 0.00 59 1012.4
20260506154600 23 227 27.4 48.3 0.00 0.00 0.00 60 1012.5
20260506153100 23 199 22.5 48.3 0.00 0.00 0.00 61 1012.7
20260506151555 23 176 17.7 45.1 0.00 0.00 0.00 62 1012.5
20260506150056 23 223 19.3 45.1 0.00 0.00 0.00 61 1012.7
20260506144551 23 177 20.9 40.2 0.00 0.00 0.00 61 1012.5
20260506143055 23 189 29.0 49.9 0.00 0.00 0.00 60 1012.6
20260506141553 23 219 25.7 53.1 0.00 0.00 0.00 59 1012.7
20260506140054 23 360 24.1 45.1 0.00 0.00 0.00 62 1012.5
20260506134552 22 222 27.4 49.9 0.00 0.00 0.00 63 1012.8
20260506133052 22 185 27.4 48.3 0.00 0.00 0.00 64 1012.8
20260506131601 21 210 27.4 45.1 0.00 0.00 0.00 65 1012.9
20260506130112 21 360 22.5 40.2 0.00 0.00 0.00 68 1013.0
20260506124558 20 213 17.7 40.2 0.00 0.00 0.00 69 1013.2
20260506123050 20 205 16.1 35.4 0.00 0.00 0.00 70 1013.1
20260506121552 20 360 14.5 35.4 0.00 0.00 0.00 72 1013.1
20260506120056 19 197 16.1 32.2 0.00 0.00 0.00 74 1013.0
20260506114550 18 360 20.9 33.8 0.00 0.00 0.00 74 1013.1
20260506113054 18 212 16.1 32.2 0.00 0.00 0.00 75 1012.9
20260506111553 18 221 16.1 32.2 0.00 0.00 0.00 76 1012.8
20260506110056 17 360 14.5 33.8 0.00 0.00 0.00 78 1012.8
20260506104557 17 360 14.5 25.7 0.00 0.00 0.00 79 1013.0
20260506103059 17 171 16.1 27.4 0.00 0.00 0.00 79 1013.0
20260506101600 16 192 12.9 25.7 0.00 0.00 0.00 80 1013.1
20260506100119 16 186 12.9 27.4 0.00 0.00 0.00 80 1012.9
20260506094553 16 360 9.7 27.4 0.00 0.00 0.00 80 1012.9
20260506093053 16 360 9.7 27.4 0.00 0.00 0.00 80 1013.0
20260506091551 17 360 12.9 25.7 0.00 0.00 0.00 80 1012.9
20260506090054 17 188 12.9 24.1 0.00 0.00 0.00 80 1012.9
20260506084620 17 184 14.5 27.4 0.00 0.00 0.00 80 1013.2
20260506083055 17 360 14.5 24.1 0.00 0.00 0.00 80 1013.2
20260506081554 17 360 12.9 25.7 0.00 0.00 0.00 80 1013.3
20260506073054 17 214 12.9 25.7 0.00 0.00 0.00 78 1013.3
20260506071559 17 360 16.1 32.2 0.00 0.00 0.00 78 1013.3
20260506061553 18 216 16.1 35.4 0.00 0.00 0.00 76 1013.4
20260506060113 18 186 14.5 35.4 0.00 0.00 0.00 76 1013.4
20260506044704 18 198 16.1 35.4 0.00 0.00 0.00 75 1014.0
20260506043110 19 192 17.7 33.8 0.00 0.00 0.00 75 1013.9
20260506041603 19 360 14.5 33.8 0.00 0.00 0.00 74 1013.9
20260506040054 19 86 17.7 30.6 0.00 0.00 0.00 74 1013.8
20260506034627 20 360 14.5 33.8 0.00 0.00 0.00 73 1013.9
20260506033101 20 360 17.7 33.8 0.00 0.00 0.00 72 1013.9
20260506031603 20 360 17.7 37.0 0.00 0.00 0.00 72 1013.9
20260506030053 20 162 14.5 40.2 0.00 0.00 0.00 72 1014.0
20260506024554 20 194 20.9 33.8 0.00 0.00 0.00 72 1013.9
20260506023110 20 360 16.1 35.4 0.00 0.00 0.00 71 1014.0
20260506021553 20 200 20.9 40.2 0.00 0.00 0.00 70 1014.1
20260506020050 20 174 17.7 30.6 0.00 0.00 0.00 70 1014.0
20260506014554 20 157 19.3 41.8 0.00 0.00 0.00 69 1013.9
20260506013059 20 169 14.5 33.8 0.00 0.00 0.00 69 1013.7
20260506011614 20 188 22.5 38.6 0.00 0.00 0.00 69 1013.6
20260506004619 21 190 16.1 32.2 0.00 0.00 0.00 68 1013.3
20260506003108 21 174 20.9 38.6 0.00 0.00 0.00 67 1013.0
20260506001555 21 360 17.7 35.4 0.00 0.00 0.00 66 1012.9